Theta_e
327 326 326 327 327 327 328 328 328 329 328 329 329 329 330 330 331 331 331 332 332 333 333 333 333 333 333 333 332 332 332 332 332 331 331 331 330 330 330 331 331 331 331 330 329 329 330 331 330 330 330 330 330 330 330 330 330 330 330 330 331 331 332
325 324 324 325 326 327 327 327 328 328 327 327 327 328 328 329 329 330 330 330 331 332 332 333 332 332 332 332 332 332 333 332 332 332 332 331 331 330 330 329 330 330 330 330 329 328 328 329 331 330 330 330 330 330 330 330 330 330 331 331 331 332 332
323 322 323 323 324 325 325 326 326 326 325 325 326 326 326 327 328 328 329 329 329 330 330 330 330 331 331 331 331 332 332 332 332 332 332 331 330 330 330 329 329 329 329 329 329 329 328 328 329 329 329 330 330 330 330 330 330 330 331 331 332 332 332
320 320 321 321 321 322 322 323 323 323 323 324 325 325 325 325 326 327 327 328 328 328 328 328 328 328 329 329 328 329 330 330 331 332 331 331 330 330 329 329 329 329 329 329 329 329 328 328 329 328 328 329 329 329 329 329 329 329 331 331 332 332 332
318 318 318 318 318 318 319 320 320 321 322 322 323 323 323 323 324 325 326 326 326 326 326 326 326 326 326 326 326 326 327 328 330 331 331 330 329 329 329 329 329 329 329 329 329 329 329 329 329 328 328 328 329 329 329 329 329 328 329 330 331 331 331
316 316 316 316 315 315 315 317 318 318 319 320 321 320 320 321 322 322 322 322 322 322 323 324 324 324 324 324 324 324 324 325 327 328 329 329 328 327 328 328 328 329 329 329 329 328 329 328 328 329 328 327 328 328 329 329 328 328 328 329 330 330 329
314 314 315 314 313 313 313 314 315 315 316 317 318 317 317 317 318 318 318 319 319 319 320 321 322 322 322 323 324 324 324 324 324 325 326 327 327 328 328 328 328 329 329 329 329 328 328 328 328 328 328 327 327 327 329 330 329 329 329 329 330 329 329
313 312 312 312 311 311 312 313 313 313 314 314 315 315 315 314 314 315 316 316 317 318 318 319 319 319 320 321 322 323 324 325 325 325 326 326 326 327 327 327 328 329 329 329 329 329 329 328 328 328 328 328 328 328 328 329 330 330 330 330 330 330 330
310 310 309 309 309 309 310 311 311 311 312 312 312 313 313 313 312 312 313 313 315 315 316 317 317 317 317 318 320 321 323 324 325 325 326 326 326 327 326 327 327 328 328 328 329 329 329 329 328 328 327 327 328 329 328 328 329 330 330 330 330 330 330
309 308 307 307 307 307 308 308 309 309 310 310 310 311 312 311 310 310 310 311 312 313 314 315 314 315 316 317 318 320 320 321 322 324 325 326 327 327 327 328 328 327 328 328 328 328 328 329 329 328 327 327 327 329 329 329 330 329 329 329 329 329 330
308 307 306 306 306 306 306 306 306 307 307 308 309 309 310 309 308 307 308 309 309 310 311 311 312 313 315 316 317 318 319 319 320 321 323 325 325 326 327 327 328 328 328 328 328 328 328 328 328 328 328 327 327 327 329 330 330 328 328 329 329 329 329
307 307 306 305 305 305 305 305 305 305 305 306 307 307 307 307 305 305 306 307 307 308 308 309 310 311 313 314 315 316 317 318 319 320 321 323 324 325 326 326 327 328 328 328 328 328 328 328 328 328 328 327 327 327 327 327 328 328 327 328 328 329 329
307 306 306 305 305 304 304 304 304 304 304 304 305 305 305 304 303 302 303 303 304 305 305 306 307 308 309 311 312 312 314 315 316 318 320 321 322 323 324 325 326 327 328 328 328 328 328 328 328 328 328 327 327 327 326 326 327 327 327 327 328 329 329
306 306 306 305 305 304 304 303 303 303 303 303 303 303 303 302 302 301 300 300 300 300 302 302 303 305 307 308 309 310 311 311 312 314 316 318 320 321 321 323 325 326 327 327 328 328 328 328 327 327 327 327 326 326 326 326 326 326 326 326 328 328 328
306 306 306 305 305 304 304 303 302 302 302 301 301 301 301 301 301 300 298 298 298 298 299 299 299 301 302 304 305 306 306 306 307 310 311 314 316 317 318 320 323 325 325 326 327 327 327 327 327 327 327 327 327 326 326 326 326 325 325 326 327 328 329
305 305 305 305 305 304 304 302 301 300 300 300 300 300 300 300 299 299 298 298 298 298 298 298 298 298 298 299 300 302 304 304 305 307 309 310 312 314 315 317 320 323 325 326 326 326 326 327 327 327 327 327 327 327 327 326 326 325 324 325 325 327 328
304 304 304 304 304 304 304 302 300 299 299 299 299 299 299 298 298 298 297 297 297 297 297 297 297 297 297 297 298 301 303 304 306 307 308 310 311 312 313 316 319 322 324 325 326 326 326 326 326 326 326 327 328 328 327 327 326 325 325 325 325 326 327
302 301 302 302 303 304 304 302 301 300 299 298 298 298 298 298 297 297 297 297 297 296 297 297 297 297 297 298 300 302 303 304 305 307 308 309 310 311 313 314 317 320 323 325 326 326 326 326 326 326 326 326 326 327 327 327 326 326 325 325 326 326 326
301 300 300 300 301 301 302 301 301 300 298 298 298 297 297 297 297 297 296 296 296 296 296 296 297 297 297 298 300 302 303 303 304 305 306 307 308 309 309 311 313 315 317 320 322 324 326 326 326 326 325 326 326 326 326 325 325 325 325 325 325 326 326
301 300 299 299 299 299 299 300 299 299 298 297 297 297 297 297 297 296 296 296 296 296 296 296 296 297 297 297 298 300 300 301 302 303 304 305 306 305 305 307 310 310 311 313 315 317 319 322 324 326 326 326 326 325 325 325 325 326 326 326 326 326 326
301 300 299 299 299 298 299 299 299 298 298 297 297 297 297 297 297 296 296 296 296 296 296 296 296 296 297 297 297 297 298 299 300 300 302 303 303 303 303 304 306 306 307 310 311 312 313 315 318 322 325 326 326 325 325 325 326 326 326 326 326 326 326
301 300 299 298 298 298 298 298 298 298 297 297 297 296 296 296 296 296 296 296 296 296 295 295 295 296 296 296 296 296 297 298 298 299 300 300 301 301 301 301 303 303 305 309 311 312 313 313 313 316 319 323 325 325 325 325 326 326 326 326 325 325 325
301 300 299 298 298 298 298 298 298 298 297 297 297 296 296 295 295 295 296 296 296 296 295 295 295 295 296 296 296 296 296 297 297 297 298 298 299 299 299 300 301 302 304 308 309 311 312 313 313 314 316 319 321 323 325 325 325 325 326 326 325 325 324
300 300 299 299 298 297 298 298 298 298 297 297 296 296 295 295 295 295 295 295 295 295 295 295 296 295 295 296 296 296 296 296 297 296 297 297 297 298 298 298 299 300 302 304 305 307 309 311 313 314 316 318 320 321 323 324 325 325 325 325 325 325 324
298 298 297 297 296 296 297 298 297 296 295 294 294 294 294 293 293 294 294 295 295 295 295 295 296 295 295 295 296 296 295 296 296 296 296 296 296 296 297 297 298 298 299 300 301 303 306 308 311 312 314 318 321 322 322 323 324 325 325 325 325 324 324
296 295 295 295 296 297 297 296 294 294 293 293 293 292 292 292 292 293 293 294 294 294 295 295 296 296 295 295 295 295 295 295 295 295 296 295 295 295 296 296 297 297 298 299 299 300 302 305 308 310 312 316 319 322 323 323 323 324 324 325 325 324 324
295 295 295 295 296 296 296 295 294 294 293 292 292 292 292 292 292 292 293 293 294 294 294 295 296 296 295 295 295 295 295 294 294 294 295 295 295 295 295 295 296 296 296 297 297 298 299 302 304 307 309 312 316 319 322 323 324 324 324 324 324 324 325
295 295 295 295 295 295 295 294 294 294 293 293 293 292 292 292 292 292 293 293 294 294 295 295 296 296 296 295 295 295 294 294 294 294 294 295 295 295 294 295 295 295 294 294 295 296 297 299 302 304 306 308 312 316 319 321 323 324 324 324 324 324 325
295 295 295 295 295 295 294 294 294 294 294 293 293 292 292 292 292 292 293 293 294 294 295 296 296 296 296 295 295 294 294 294 293 293 293 294 294 294 294 294 294 294 293 293 294 295 296 298 300 302 302 304 308 312 316 319 321 322 323 324 324 325 325
295 295 295 295 295 294 294 294 294 294 293 293 293 292 292 292 292 292 293 293 293 294 295 295 296 296 296 295 295 294 294 293 293 293 293 293 293 293 293 294 294 293 292 292 294 295 296 297 298 299 299 300 304 308 313 316 318 320 322 323 323 324 324
295 295 295 295 295 294 294 294 294 293 293 293 293 292 292 292 292 292 293 293 293 294 295 295 296 296 296 295 295 294 294 293 292 292 292 293 293 293 293 293 293 293 292 292 293 295 295 296 297 297 297 298 300 303 308 313 315 318 321 322 322 323 324
295 295 295 295 295 295 294 294 294 294 293 293 293 292 292 292 292 292 293 293 293 294 295 295 296 296 296 296 295 294 294 293 292 292 292 292 292 292 292 292 293 292 292 292 293 294 295 295 295 295 295 296 297 300 304 309 312 316 319 322 322 322 323
296 295 295 295 295 295 295 294 294 294 294 293 293 292 292 292 292 292 292 292 293 293 294 295 296 297 296 296 295 294 294 293 292 292 291 291 291 291 291 292 292 292 292 293 293 293 294 295 295 294 295 294 295 298 303 308 312 314 316 319 321 321 322
296 295 295 295 295 295 295 294 294 294 294 294 293 293 292 292 292 292 291 292 292 292 293 294 296 297 296 296 295 295 294 294 293 292 291 291 291 290 291 291 291 291 292 293 293 293 294 295 295 295 295 295 297 300 305 309 313 314 314 316 318 318 318
296 296 295 295 295 295 295 295 294 294 294 294 293 293 292 292 292 292 291 292 292 292 293 294 296 297 297 296 295 295 294 294 293 292 291 291 290 290 290 291 291 291 291 292 293 293 293 294 295 294 295 297 300 303 306 309 311 312 312 313 314 314 314
297 296 296 295 295 295 295 295 295 294 294 294 293 293 292 292 292 292 291 292 292 292 293 294 295 296 296 296 295 295 294 294 293 292 292 291 291 290 291 291 291 291 291 292 293 293 293 294 294 294 295 297 299 302 304 305 306 308 309 309 308 308 308
297 297 296 296 295 295 295 295 295 294 294 294 293 293 292 292 292 292 291 291 292 292 293 294 295 295 296 296 296 295 294 293 293 292 292 291 291 291 290 291 291 291 291 292 292 293 293 294 294 294 294 295 297 299 300 301 300 302 303 304 303 302 302
Wind_Speed
13 13 12 12 12 13 13 13 14 13 14 14 14 14 13 13 13 12 12 12 12 13 13 14 15 16 17 18 18 19 20 19 20 21 22 21 19 19 20 22 24 27 29 25 20 14 6 4 7 13 20 27 30 30 30 31 32 33 33 34 35 35 33
10 10 11 12 13 14 15 15 15 14 15 14 14 14 14 13 13 13 13 13 14 13 13 14 16 17 18 19 19 19 20 20 20 21 23 22 21 22 22 21 22 22 24 26 26 21 12 7 6 4 10 18 22 28 31 29 30 32 33 34 35 34 34
9 9 11 12 13 15 16 16 16 16 17 16 15 15 15 14 13 14 14 14 14 14 14 15 16 17 18 19 20 20 21 22 22 22 23 24 24 26 25 23 22 20 17 16 18 19 14 11 9 6 7 11 12 21 30 32 32 33 34 35 34 34 34
10 10 11 13 13 14 14 15 15 16 17 17 16 16 16 15 14 14 14 14 14 15 15 16 16 17 18 19 20 20 21 22 23 24 25 25 25 26 27 26 26 23 19 15 15 17 13 9 8 6 9 13 13 17 25 33 36 34 34 34 34 34 34
11 12 13 13 13 13 12 12 12 13 14 15 15 17 18 17 16 15 16 16 16 16 17 18 18 18 18 19 20 20 21 22 24 25 26 25 24 25 26 27 27 27 26 24 23 22 18 16 13 6 8 13 13 14 20 25 30 34 34 33 34 35 34
12 12 13 13 12 12 11 10 10 11 11 12 14 17 18 17 17 17 17 18 18 18 18 19 19 20 20 20 20 21 21 22 23 25 26 26 26 27 28 28 29 30 30 29 28 27 24 23 17 9 10 14 10 10 15 18 22 27 31 33 34 34 34
13 13 12 12 12 11 12 11 11 11 12 13 14 15 15 15 16 17 17 18 18 19 19 19 19 19 19 19 19 21 22 22 23 24 26 27 29 29 28 29 30 30 30 29 29 29 27 23 18 13 11 11 11 9 11 16 19 18 22 29 33 33 33
14 13 12 12 11 12 13 12 12 12 12 13 12 12 13 13 15 18 18 18 18 19 19 19 19 19 18 18 17 18 20 21 23 24 25 26 27 28 28 29 31 31 30 29 29 29 27 24 23 23 16 8 7 7 7 11 15 17 20 24 29 33 34
16 16 15 15 15 14 14 13 13 13 12 12 12 12 12 12 15 19 18 18 18 18 18 19 20 20 21 20 20 20 19 20 21 23 25 27 27 28 28 29 31 32 31 30 31 30 29 27 27 28 24 14 8 5 5 6 8 13 20 20 22 30 34
19 19 19 19 19 18 18 17 16 15 14 14 13 13 12 12 17 20 19 19 19 19 19 19 20 21 22 22 22 22 22 21 22 22 24 25 27 28 28 29 30 31 30 30 30 30 29 29 29 29 28 25 17 7 4 6 5 7 16 21 21 24 30
20 20 21 21 22 22 22 21 21 20 18 17 15 14 13 14 19 22 22 23 23 22 22 23 23 23 23 23 23 23 23 23 24 23 22 23 24 26 28 29 29 29 29 29 29 29 28 28 29 30 30 30 26 16 8 5 6 9 15 21 23 22 25
20 21 21 23 24 24 24 23 23 22 22 20 18 17 16 17 22 25 26 26 26 26 26 26 26 26 25 24 24 23 23 24 25 25 24 23 23 25 27 28 28 27 28 29 28 27 28 29 29 29 29 30 30 26 18 8 5 10 16 20 24 25 24
21 21 21 23 25 26 25 24 24 22 22 22 20 19 18 20 24 27 28 29 29 29 29 28 28 28 26 25 24 24 23 23 24 25 25 24 24 24 25 26 27 27 27 28 27 26 26 28 28 27 28 29 28 27 25 15 6 8 15 20 23 26 24
21 21 21 23 25 26 26 26 25 24 24 24 22 20 20 20 23 26 29 31 32 32 32 31 31 31 29 26 25 25 25 25 25 26 26 25 25 25 25 25 26 26 25 26 26 25 25 25 24 25 27 27 26 26 25 20 11 8 12 18 20 21 23
20 20 21 21 22 24 25 26 26 25 26 26 24 22 21 20 21 24 28 31 32 33 33 34 33 33 32 30 28 27 27 28 28 27 27 28 27 28 27 25 25 25 25 24 24 23 23 23 23 25 27 27 25 25 26 23 16 10 11 16 19 19 21
18 19 20 20 20 20 22 24 25 26 27 26 25 23 22 21 22 25 28 31 32 33 34 35 34 34 33 31 30 29 28 28 29 29 29 30 29 30 30 27 25 25 25 23 22 22 23 23 22 23 25 27 27 26 26 26 21 15 13 16 19 20 21
17 18 19 19 18 17 19 22 25 26 27 27 27 26 24 23 24 26 28 30 32 33 34 35 35 35 33 31 31 31 28 27 28 29 29 30 30 30 29 27 26 26 26 24 22 22 22 23 23 22 22 22 24 24 24 26 26 22 16 15 19 22 23
21 21 20 19 17 16 17 19 21 23 25 26 27 27 26 24 25 26 27 28 30 32 33 34 35 36 35 32 30 29 28 27 28 29 29 30 30 28 27 26 25 27 27 25 23 22 22 22 23 22 22 21 21 22 21 23 25 24 19 17 19 21 22
22 22 22 21 20 18 17 18 19 21 23 24 25 26 25 24 24 25 26 27 29 32 33 34 36 37 36 33 30 29 28 27 28 28 28 28 27 25 25 26 25 25 26 25 23 22 22 23 23 22 22 22 22 22 21 21 22 22 22 23 22 21 21
19 20 21 22 22 20 20 20 20 21 23 25 25 25 25 24 24 24 25 27 29 32 34 35 36 37 37 35 32 30 30 28 28 28 27 27 27 27 27 27 27 27 28 27 25 23 21 20 21 22 23 24 23 22 22 22 23 23 24 24 22 22 23
17 18 19 20 21 22 21 21 21 22 23 25 25 25 24 24 24 25 26 27 29 31 35 36 37 37 37 35 33 31 30 29 29 29 29 30 30 29 28 27 27 29 30 28 25 23 24 22 19 19 22 23 24 22 22 22 23 23 24 23 21 22 22
17 18 20 20 20 21 22 22 21 22 23 24 24 25 24 24 25 26 27 28 28 31 34 36 37 36 35 34 33 31 30 30 29 29 30 32 33 31 30 29 28 29 31 28 25 23 23 23 22 20 19 20 21 22 22 22 21 22 22 21 19 20 19
16 17 18 19 19 19 20 20 20 21 22 22 23 24 24 25 26 26 27 28 28 30 33 35 36 35 34 33 32 31 30 29 29 30 29 30 33 33 32 31 30 31 33 30 28 27 26 24 23 20 19 18 19 20 22 22 21 21 20 18 18 19 16
17 16 17 17 18 18 18 18 19 21 21 22 21 22 24 25 26 26 26 27 27 28 31 33 34 36 36 34 32 30 29 28 29 30 30 29 32 33 32 32 32 34 36 34 32 31 30 28 26 23 21 19 19 19 21 22 22 22 20 18 19 20 18
20 18 17 17 17 18 19 19 21 22 22 22 22 23 24 24 25 25 25 26 26 27 30 32 33 35 36 36 34 31 29 28 27 28 30 31 33 33 32 31 32 34 36 35 34 34 34 32 30 28 25 21 20 19 20 22 24 23 21 20 19 19 20
22 21 20 19 18 18 20 21 23 24 24 25 25 25 25 25 25 25 25 25 26 26 29 31 31 34 36 36 36 34 32 29 26 26 29 30 31 33 32 30 31 34 37 37 36 37 38 37 34 32 29 24 21 19 19 20 24 26 26 24 21 21 25
24 23 23 22 21 20 21 21 22 24 25 26 27 27 27 27 26 25 25 25 26 27 29 30 30 32 35 37 37 35 34 32 28 26 28 29 30 32 30 29 30 32 35 36 36 38 39 39 38 36 33 29 24 21 20 19 20 24 29 29 26 26 29
22 23 23 23 23 22 20 19 20 21 23 26 27 27 28 27 27 26 25 26 27 28 29 29 30 31 33 36 37 36 34 33 31 29 29 29 30 31 29 27 28 30 32 34 35 36 37 38 38 37 35 32 28 25 22 20 19 19 25 31 31 30 31
20 20 21 21 22 21 20 20 20 20 22 25 26 28 28 28 27 27 26 26 27 29 29 30 30 31 33 35 37 36 35 34 33 32 30 29 30 31 29 27 27 29 31 34 35 34 35 35 35 35 34 32 30 27 24 21 20 19 20 25 30 33 32
18 18 18 19 20 20 21 21 21 21 23 25 27 28 28 28 27 26 27 27 27 28 30 30 30 30 32 34 36 36 35 34 33 32 30 29 30 31 29 27 27 28 31 34 35 34 33 33 33 33 32 31 29 28 26 22 19 20 19 20 25 30 32
17 17 18 18 19 20 21 21 21 22 23 25 27 27 28 29 28 27 27 27 28 28 29 30 30 30 30 32 34 35 34 33 33 32 30 30 31 32 31 29 27 28 32 35 34 33 33 33 32 30 29 28 28 27 26 23 20 20 19 19 21 25 29
17 17 17 18 18 19 20 20 21 22 24 26 27 27 28 29 30 29 28 28 28 29 30 30 30 29 29 30 32 34 33 33 33 32 30 29 31 33 33 33 31 30 33 34 33 32 32 32 30 29 26 25 26 28 29 25 21 20 21 20 19 21 24
16 17 17 17 17 18 19 20 21 23 25 27 28 28 28 29 29 29 28 28 28 29 30 31 31 29 27 28 30 33 33 33 33 32 29 28 30 33 34 35 35 33 34 34 32 32 32 31 29 28 26 26 26 30 32 28 20 17 20 20 18 18 19
15 15 15 16 17 17 18 20 21 23 25 27 28 29 29 28 29 30 29 29 29 29 30 31 31 28 26 27 29 31 32 33 32 32 30 28 29 31 33 35 36 35 34 33 31 32 33 31 30 29 29 28 26 26 27 24 19 15 16 17 15 14 14
13 13 13 15 16 17 17 19 21 23 25 27 28 28 29 29 29 30 31 30 30 30 31 33 32 28 25 26 28 29 30 31 31 31 30 30 30 31 32 34 36 35 34 33 31 31 33 33 32 32 30 28 26 22 17 13 10 10 11 10 9 9 9
10 11 12 13 15 16 17 18 20 22 24 26 27 27 28 29 29 30 32 32 31 30 31 33 32 29 25 24 26 28 29 30 31 31 30 30 30 31 32 33 34 35 35 34 32 31 33 34 35 35 32 30 29 26 21 17 11 2 2 4 4 3 4
7 8 9 11 13 15 16 17 18 20 22 24 26 26 26 27 28 29 30 32 32 31 31 32 32 30 26 24 25 27 29 30 31 31 31 30 30 30 31 33 33 34 35 35 34 33 33 35 36 37 36 35 34 32 29 27 24 17 14 15 16 15 13
Wind_Direction
35 24 16 9 6 7 12 16 20 23 25 24 24 26 27 25 23 19 13 8 358 346 336 329 327 328 326 322 319 312 306 300 293 285 280 279 274 274 276 270 265 263 262 260 255 254 265 271 237 223 227 229 228 227 225 226 227 226 225 224 224 226 226
35 22 10 1 355 353 354 357 359 3 10 14 15 16 16 16 17 16 13 10 5 355 344 336 332 330 327 324 322 315 308 301 296 289 281 277 275 276 279 272 267 264 260 258 255 249 244 254 254 222 220 223 226 227 224 225 227 226 226 224 224 225 226
36 21 9 1 354 348 344 344 344 346 353 359 2 6 8 8 8 9 9 6 3 359 352 345 338 334 331 327 325 318 309 301 293 288 282 282 282 280 277 272 269 266 258 255 251 244 239 241 246 244 220 211 219 226 226 227 228 226 226 226 225 224 226
41 29 19 11 3 354 346 340 339 341 347 350 351 355 360 1 358 359 360 355 350 347 344 341 336 333 329 323 320 317 310 303 296 289 283 282 282 279 276 271 267 265 260 253 249 243 236 233 238 245 230 222 223 226 228 230 229 227 226 226 226 226 227
47 39 33 28 19 10 360 347 339 339 341 343 348 353 355 355 352 349 349 348 346 343 337 333 329 325 322 315 311 310 308 305 299 292 284 281 283 282 279 274 271 270 265 259 257 251 243 240 238 238 237 232 230 233 233 230 228 228 226 225 227 228 230
52 46 41 37 30 23 21 15 7 2 358 358 4 5 359 358 359 356 355 355 354 349 342 335 331 327 324 318 312 309 307 304 300 294 289 287 288 285 282 280 277 274 269 264 262 257 251 245 240 240 240 232 227 233 233 228 226 227 229 229 229 230 229
54 50 47 40 33 29 33 37 32 26 23 20 19 16 10 11 14 11 6 2 359 355 349 344 340 336 330 324 317 313 311 309 305 299 293 291 289 286 283 282 280 274 272 269 264 259 253 245 238 239 242 231 222 220 221 221 218 218 225 229 230 230 228
58 56 53 46 38 36 37 42 40 35 31 28 25 25 24 20 18 17 14 9 5 360 355 352 350 346 341 336 329 321 315 314 311 305 299 295 292 289 287 286 284 278 276 274 269 263 256 248 241 238 236 230 219 214 212 215 212 212 217 221 227 229 228
58 55 53 49 47 46 44 44 44 40 37 35 31 33 35 21 13 16 16 14 13 7 0 357 355 353 351 349 343 334 325 320 315 309 306 302 297 294 291 289 286 282 281 279 274 268 261 254 247 240 232 224 221 219 211 211 211 220 221 216 221 228 227
57 54 51 49 48 50 50 48 46 45 42 38 34 37 38 21 12 15 16 16 17 12 6 3 360 358 355 352 347 341 337 331 321 311 307 306 305 301 295 289 284 281 284 284 277 270 263 255 250 245 234 224 221 218 209 216 209 213 219 216 217 224 226
58 54 50 49 49 50 50 48 47 45 42 39 37 38 35 20 14 17 19 18 15 12 9 6 3 360 355 349 344 341 340 337 330 323 316 312 310 309 305 297 287 281 283 283 278 270 264 258 253 246 236 227 223 222 217 220 215 208 212 216 218 222 224
61 56 51 50 50 50 48 47 45 43 41 40 39 39 37 29 23 22 21 19 16 14 10 6 3 360 356 348 341 338 338 336 333 331 328 322 316 314 312 307 298 291 287 283 277 270 265 261 254 244 236 228 223 222 222 222 232 219 211 214 219 222 224
62 58 54 51 50 49 47 46 44 40 39 39 38 36 36 34 28 24 23 21 18 15 12 9 6 2 358 352 345 341 339 337 335 332 330 326 322 318 314 311 307 299 293 286 278 270 266 262 252 241 236 230 221 221 222 221 231 229 218 220 221 219 222
60 57 54 51 48 47 45 44 43 39 38 37 35 33 31 30 25 22 22 21 18 16 13 11 8 5 0 355 351 347 343 341 339 337 335 331 328 326 320 313 310 306 301 292 281 273 268 264 253 240 237 232 223 220 220 219 224 233 224 224 224 220 221
59 56 54 50 47 45 42 41 38 36 36 35 34 35 33 30 25 21 21 20 18 17 14 11 8 5 3 358 353 350 348 346 343 341 340 338 335 334 329 319 312 311 308 298 286 277 272 269 259 244 237 233 228 223 220 218 220 226 226 224 223 220 219
61 57 55 53 49 46 43 40 37 37 37 36 35 37 37 34 28 23 21 20 19 18 15 12 9 6 4 1 355 352 350 349 347 344 342 340 339 337 333 326 319 316 310 300 293 287 278 271 265 253 241 233 227 224 222 221 220 219 222 227 225 220 216
65 61 58 57 55 53 47 43 41 40 40 39 38 39 39 35 30 24 22 21 19 18 16 13 9 7 6 4 359 355 353 350 349 347 343 342 342 339 334 328 324 324 316 302 294 291 283 273 268 264 258 245 232 226 224 224 224 220 217 225 228 224 218
70 66 63 61 61 62 57 49 44 41 40 40 40 40 39 35 30 26 23 21 19 18 16 13 10 8 8 7 4 0 357 355 352 350 347 347 347 344 340 337 333 333 327 312 297 289 283 276 271 267 264 260 251 241 232 227 227 222 215 220 228 229 224
73 70 68 65 64 65 64 59 51 45 42 42 41 41 40 36 31 27 24 22 20 18 17 15 12 10 8 8 8 6 4 360 356 352 348 348 349 346 346 348 347 346 343 334 320 306 292 281 274 267 261 258 254 248 240 236 234 225 216 220 227 229 225
76 73 70 68 66 65 64 61 56 50 45 43 42 40 38 36 32 28 25 23 21 19 18 16 14 13 11 8 8 8 7 4 359 355 352 349 350 351 351 352 354 355 354 350 344 337 327 310 288 274 265 258 251 244 239 236 233 225 219 220 223 226 225
82 77 74 71 68 65 62 57 53 49 44 42 40 37 35 33 30 27 25 23 21 19 19 17 14 13 11 10 9 8 8 6 1 357 356 354 354 353 352 352 353 355 355 353 348 345 346 343 326 300 279 264 252 243 238 232 226 222 224 225 222 223 224
89 80 74 71 70 67 62 57 53 47 43 41 38 35 34 31 28 26 24 23 20 18 18 17 15 14 12 11 10 8 8 7 3 358 356 356 357 355 352 351 351 352 354 352 347 343 340 342 342 329 307 285 264 249 241 235 226 220 222 224 222 220 220
93 84 74 69 66 63 60 57 52 45 40 37 34 31 30 29 27 25 23 21 20 18 17 15 15 16 15 13 12 9 8 7 6 4 360 355 356 356 353 353 352 353 355 352 347 344 339 335 336 333 321 305 286 264 248 239 230 223 221 219 220 217 213
88 82 74 66 60 57 56 56 50 43 37 34 30 27 26 26 25 23 22 21 19 17 15 13 13 16 17 16 14 11 8 5 5 6 3 359 358 356 353 353 352 354 357 355 349 344 340 335 332 329 320 307 294 278 258 243 232 226 222 220 222 217 211
79 73 68 65 62 60 60 57 50 44 40 35 32 29 27 25 24 22 22 21 19 17 15 12 11 14 15 17 16 14 9 5 2 3 3 2 1 358 355 352 350 352 355 355 352 347 342 337 332 329 325 311 296 285 271 253 241 231 223 220 223 219 215
76 71 68 67 67 67 64 59 52 47 43 39 36 33 30 27 25 24 23 22 20 18 15 13 11 12 13 15 17 16 12 7 3 0 360 360 359 358 356 352 348 349 352 355 355 352 346 340 334 330 327 319 305 293 283 268 253 242 233 227 225 223 220
80 75 73 71 70 68 65 60 54 47 43 39 35 32 29 26 25 25 24 24 22 20 17 14 12 11 12 13 16 16 14 11 8 3 360 358 356 355 356 353 348 346 349 352 354 352 347 343 338 334 330 326 317 304 293 283 268 252 241 233 229 230 229
83 79 76 73 71 69 65 59 52 45 40 37 34 31 28 25 24 25 25 24 23 22 20 17 14 12 11 12 15 16 13 11 11 7 3 360 356 354 354 351 348 345 346 348 351 351 348 343 340 337 334 329 324 315 302 292 285 271 251 237 232 235 238
86 81 77 73 70 67 63 58 52 46 42 38 34 32 29 27 25 25 25 24 23 22 22 20 17 14 11 11 14 15 12 10 10 7 4 0 356 355 354 350 347 346 346 348 349 351 351 345 340 339 336 330 326 320 310 300 295 289 271 251 241 240 243
89 84 79 74 70 66 62 58 54 49 44 39 35 32 30 29 28 26 26 25 22 21 22 21 19 16 13 12 14 14 12 9 7 4 2 360 356 355 354 351 348 347 348 349 350 352 353 349 344 342 337 331 328 323 318 315 306 293 283 267 252 244 242
92 87 82 76 72 67 62 58 54 50 46 41 37 35 33 32 31 29 27 26 22 21 21 21 20 18 15 14 15 15 12 8 5 1 359 357 356 356 355 353 353 351 349 350 352 354 356 354 350 346 339 332 328 322 319 321 316 298 283 272 260 250 243
93 88 83 78 73 67 62 58 54 50 47 43 39 37 36 35 33 30 28 26 24 22 21 21 21 19 17 16 17 16 13 8 4 1 358 354 353 355 356 355 356 356 352 352 356 358 359 359 356 350 343 335 326 319 317 318 313 297 281 270 262 255 248
92 88 84 79 74 68 61 56 52 49 46 43 40 38 37 35 32 30 27 25 24 22 19 19 21 21 19 18 18 16 14 9 4 1 358 353 351 352 354 355 357 357 355 356 359 2 3 4 2 357 351 343 331 322 317 310 300 286 275 266 258 252 248
90 87 84 79 74 67 60 54 50 48 45 41 39 37 36 34 31 29 27 26 25 23 20 18 19 20 21 21 20 17 15 11 6 2 359 356 354 353 353 354 356 357 358 358 1 5 7 8 9 6 0 354 345 331 318 304 290 276 263 252 243 241 240
90 87 83 77 71 66 59 52 48 46 43 40 38 36 35 32 30 27 27 27 26 25 23 20 18 19 20 21 21 18 15 13 10 7 4 1 359 357 355 355 357 359 0 2 5 9 11 12 15 12 9 9 7 356 342 326 299 265 247 234 216 207 212
93 85 79 73 68 63 57 50 46 43 41 38 37 35 34 32 29 26 25 26 26 25 22 20 19 18 17 18 20 20 17 15 14 13 9 5 2 360 359 359 0 2 5 7 9 11 14 16 18 17 17 22 24 21 21 23 20 12 143 88 76 98 109
98 85 77 69 63 59 54 48 45 42 39 37 35 34 33 31 29 26 22 21 23 22 20 19 18 17 15 13 17 19 17 17 17 16 13 9 6 4 3 4 6 9 11 11 12 14 17 19 21 22 23 27 32 33 34 32 29 34 54 59 47 35 35